Tracking 19709 objects as of 17-Jun-2019
HD Live streaming from Space Station
objects crossing your sky now

DELTA 1 DEB

Track DELTA 1 DEB now!
10-day predictions


NORAD ID: 12193
Int'l Code: 1978-026AJ
Perigee: 794.6 km
Apogee: 1,182.1 km
Inclination: 98.9 °
Period: 104.7 minutes
Semi major axis: 7359 km
RCS: 0.0173 m2 (small)
Launch date: March 5, 1978
Source: United States (US)
Launch site: AIR FORCE WESTERN TEST RANGE (AFWTR)

Note: This is SATELLITE DEBRIS
aabbcc
Your satellite tracking list
Your tracking list is empty




NASA's NSSDC Master Catalog

Two Line Element Set (TLE):
1 12193U 78026AJ  19167.81016287 +.00000456 +00000-0 +40380-3 0  9999
2 12193 098.8900 118.0391 0263237 214.7112 143.6616 13.75136614898498
Source of the keplerian elements: AFSPC